ORBCOMM FM18 [+]

Last updated on Sat May 13 2023 00:03:01 GMT+0000 (Coordinated Universal Time)

1 25414U 98046B 23132.32728732 .00001452 00000+0 56068-3 0 9997 2 25414 44.9935 200.9843 0002386 4.8370 355.2499 14.34432742294005

Satellite not in orbit

ORBCOMM FM18 [+]